FW4287 Weather Reports


Display with metric or nautical units.
time (UTC)temp
F
wind
direction
speed
MPH
gust
MPH
rain 1hr
in
rain 24hr
in
rain mn
in
humidity
%
barometer
mb
20210920211646 63 306 5.0 0.0 0.00 0.02 0.00 60 1028.0
20210920210041 62 302 5.0 0.0 0.00 0.02 0.00 60 1028.0
20210920204540 62 311 6.0 0.0 0.00 0.02 0.00 60 1028.0
20210920203028 62 293 6.0 0.0 0.00 0.02 0.00 63 1028.0
20210920201530 62 339 4.0 0.0 0.00 0.02 0.00 65 1028.0
20210920200145 62 14 4.0 0.0 0.00 0.02 0.00 67 1028.0
20210920194533 62 6 5.0 0.0 0.00 0.02 0.00 67 1028.0
20210920193036 61 331 5.0 0.0 0.00 0.02 0.00 69 1028.4
20210920191604 61 333 4.0 0.0 0.00 0.02 0.00 70 1028.4
20210920190041 62 346 6.0 0.0 0.00 0.02 0.00 68 1028.4
20210920184529 61 340 6.0 0.0 0.00 0.02 0.00 68 1028.4
20210920183034 61 355 4.0 0.0 0.00 0.02 0.00 66 1028.4
20210920181607 60 328 1.0 0.0 0.00 0.02 0.00 65 1028.4
20210920180106 60 166 2.0 0.0 0.00 0.02 0.00 67 1028.4
20210920174606 59 144 2.0 0.0 0.00 0.02 0.00 68 1028.4
20210920173032 58 175 4.0 0.0 0.00 0.02 0.00 69 1028.7
20210920171533 58 168 3.0 0.0 0.00 0.02 0.00 71 1028.7
20210920170045 58 171 3.0 0.0 0.00 0.02 0.00 73 1028.7
20210920164528 57 159 4.0 0.0 0.00 0.02 0.00 79 1028.7
20210920163108 55 153 4.0 0.0 0.00 0.02 0.00 85 1028.7
20210920161535 53 172 3.0 0.0 0.00 0.02 0.00 89 1028.4
20210920160041 52 179 3.0 0.0 0.00 0.02 0.00 90 1028.4
20210920154609 50 172 3.0 0.0 0.00 0.02 0.00 96 1028.4
20210920153037 49 116 1.0 0.0 0.00 0.02 0.00 98 1028.0
20210920151535 45 172 0.0 0.0 0.00 0.02 0.00 99 1028.0
20210920150035 42 159 0.0 0.0 0.00 0.02 0.00 98 1028.0
20210920144536 41 3 0.0 0.0 0.00 0.02 0.00 98 1027.7
20210920143106 42 360 0.0 0.0 0.00 0.02 0.00 98 1027.7
20210920141607 42 90 1.0 0.0 0.00 0.02 0.00 98 1027.7
20210920140040 44 22 0.0 0.0 0.00 0.02 0.00 98 1027.3
20210920134537 45 66 1.0 0.0 0.00 0.02 0.00 98 1027.0
20210920133031 45 120 0.0 0.0 0.00 0.02 0.00 98 1027.0
20210920131537 44 162 0.0 0.0 0.00 0.02 0.00 98 1027.0
20210920130039 43 138 0.0 0.0 0.00 0.02 0.00 98 1026.6
20210920124605 42 182 0.0 0.0 0.00 0.02 0.00 98 1026.6
20210920123150 43 211 3.0 0.0 0.00 0.02 0.00 97 1026.6
20210920121536 42 215 2.0 0.0 0.00 0.02 0.00 97 1026.6
20210920120039 42 215 2.0 0.0 0.00 0.02 0.00 97 1026.6
20210920114606 42 194 1.0 0.0 0.00 0.02 0.00 97 1026.6
20210920113106 43 225 0.0 0.0 0.00 0.02 0.00 96 1026.6
20210920111540 44 203 1.0 0.0 0.00 0.02 0.00 96 1026.6
20210920110031 44 178 2.0 0.0 0.00 0.02 0.00 96 1026.6
20210920104536 44 178 1.0 0.0 0.00 0.03 0.00 95 1026.3
20210920103036 44 157 0.0 0.0 0.00 0.03 0.00 95 1026.3
20210920101533 46 208 0.0 0.0 0.00 0.03 0.00 94 1026.3
20210920100039 47 181 2.0 0.0 0.00 0.03 0.00 94 1026.3
20210920094532 48 169 3.0 0.0 0.00 0.03 0.00 94 1026.3
20210920093035 48 158 3.0 0.0 0.00 0.03 0.00 94 1025.9
20210920091534 48 163 4.0 0.0 0.00 0.03 0.00 94 1025.9
20210920090108 48 177 2.0 0.0 0.00 0.03 0.00 93 1026.3
20210920084531 49 195 1.0 0.0 0.00 0.03 0.00 93 1025.9
20210920083034 50 192 1.0 0.0 0.00 0.03 0.00 93 1025.9
20210920081533 50 177 3.0 0.0 0.00 0.03 0.00 94 1025.9
20210920080039 50 161 4.0 0.0 0.00 0.03 0.00 95 1025.9
20210920074606 50 155 4.0 0.0 0.00 0.03 0.00 95 1025.6
20210920073032 50 155 3.0 0.0 0.00 0.03 0.00 96 1025.6
20210920071536 50 162 4.0 0.0 0.00 0.03 0.00 95 1025.2
20210920070033 50 166 3.0 0.0 0.00 0.03 0.00 95 1025.2
20210920064536 50 160 3.0 0.0 0.00 0.03 0.03 95 1025.2
20210920063035 50 173 4.0 0.0 0.00 0.03 0.03 94 1024.8
20210920061529 50 159 4.0 0.0 0.00 0.03 0.03 94 1024.8
20210920060106 50 151 4.0 0.0 0.01 0.03 0.03 94 1024.8
20210920054533 51 159 4.0 0.0 0.02 0.03 0.03 93 1024.8
20210920053037 51 164 3.0 0.0 0.02 0.03 0.03 92 1024.8
20210920051536 51 162 3.0 0.0 0.02 0.03 0.03 91 1024.5
20210920050029 52 162 5.0 0.0 0.01 0.02 0.02 90 1024.5
20210920044613 52 173 3.0 0.0 0.00 0.01 0.01 89 1024.1
20210920043034 52 161 4.0 0.0 0.00 0.01 0.01 87 1024.1
20210920041534 53 190 2.0 0.0 0.00 0.02 0.01 86 1023.8
20210920040114 53 171 3.0 0.0 0.00 0.02 0.01 86 1023.4
20210920034529 53 163 4.0 0.0 0.00 0.02 0.01 86 1023.4
20210920033031 53 176 3.0 0.0 0.00 0.03 0.01 86 1023.1
20210920031534 53 165 4.0 0.0 0.00 0.03 0.01 86 1023.1
20210920030155 52 175 4.0 0.0 0.00 0.03 0.01 87 1022.7
20210920024535 52 178 3.0 0.0 0.00 0.05 0.01 86 1022.7
20210920023033 53 164 3.0 0.0 0.00 0.07 0.01 84 1022.4
20210920021539 54 173 5.0 0.0 0.00 0.08 0.01 81 1022.4
20210920020033 55 196 6.0 0.0 0.00 0.08 0.01 78 1022.4
20210920014648 55 193 5.0 0.0 0.00 0.09 0.01 78 1022.0
20210920013035 55 207 6.0 0.0 0.00 0.11 0.01 79 1022.0
20210920011539 55 209 5.0 0.0 0.00 0.13 0.01 80 1021.7
20210920010035 55 201 4.0 0.0 0.00 0.13 0.01 80 1021.7
20210920004605 56 203 5.0 0.0 0.00 0.14 0.01 78 1021.7
20210920003104 56 202 7.0 0.0 0.00 0.15 0.01 75 1021.7
20210920001537 57 219 8.0 0.0 0.00 0.15 0.01 73 1021.3
20210920000038 57 208 7.0 0.0 0.00 0.15 0.01 75 1021.3
20210919234535 56 208 6.0 0.0 0.00 0.15 0.01 76 1021.3
20210919233152 56 211 7.0 0.0 0.00 0.16 0.01 75 1021.3
20210919231531 57 205 9.0 0.0 0.00 0.19 0.01 72 1021.3
20210919230038 57 203 7.0 0.0 0.00 0.19 0.01 70 1021.0
20210919224646 58 212 9.0 0.0 0.00 0.19 0.01 70 1020.6
20210919223106 59 190 7.0 0.0 0.00 0.19 0.01 70 1020.6
20210919221534 59 198 6.0 0.0 0.00 0.19 0.01 71 1020.6
20210919220038 58 202 7.0 0.0 0.00 0.19 0.01 74 1020.6
20210919214536 58 225 7.0 0.0 0.00 0.20 0.01 75 1020.6
20210919213028 57 207 8.0 0.0 0.00 0.20 0.01 78 1020.6